Tracking 19625 objects as of 26-May-2019
HD Live streaming from Space Station
objects crossing your sky now
Watch Starlink satellites crossing your sky!

ANTARES R/B


ANTARES R/B is no longer on orbit


NORAD ID: 39503
Int'l Code: 2014-003B
Perigee: N/A
Apogee: N/A
Inclination: N/A
Period: N/A
Semi major axis: N/A
RCS: N/A
Launch date: January 9, 2014
Source: United States (US)
Launch site: WALLOPS ISLAND (WLPIS)
Decay date: 2014-01-18

Note: This is a ROCKET BODY
aabbcc
Your satellite tracking list
Your tracking list is empty




NASA's NSSDC Master Catalog

Two Line Element Set (TLE):
1 39503U 14003B   14017.86827837  .09594133  12542-4  19103-3 0  9999
2 39503 051.6097 120.3546 0003349 195.9394 165.9964 16.47056196  1321
Source of the keplerian elements: AFSPC